This is the latest recevied weather packets stored in our database for station/object K9UO. If no packets are shown the sender has not sent any weather packets the latest 10 day(s).
| Time | Temp. | Humidity | Pressure | Rain* | Wind** | Luminosity | Snow |
|---|---|---|---|---|---|---|---|
| 1777565771 | 10° C | 54% | 1017.1 hPa | 0 mm | - | - | - |
| 1777564853 | 10° C | 55% | 1017.2 hPa | 0 mm | - | - | - |
| 1777563948 | 10° C | 54% | 1017.2 hPa | 0 mm | - | - | - |
| 1777563046 | 9.44° C | 54% | 1017.1 hPa | 0 mm | - | - | - |
| 1777562145 | 8.89° C | 54% | 1017.1 hPa | 0 mm | - | - | - |
| 1777561238 | 8.89° C | 49% | 1017 hPa | 0 mm | - | - | - |
| 1777560337 | 8.33° C | 48% | 1016.9 hPa | 0 mm | - | - | - |
| 1777559426 | 8.33° C | 46% | 1016.8 hPa | 0 mm | - | - | - |
| 1777558522 | 7.78° C | 39% | 1016.7 hPa | 0 mm | - | - | - |
| 1777557619 | 7.22° C | 28% | 1016.5 hPa | 0 mm | - | - | - |
| 1777556721 | 6.67° C | 18% | 1016.6 hPa | 0 mm | - | - | - |
| 1777555807 | 6.11° C | 2% | 1016.5 hPa | 0 mm | - | - | - |
| 1777554903 | 5° C | 1% | 1016.3 hPa | 0 mm | - | - | - |
| 1777554062 | 4.44° C | 1% | 1016.1 hPa | 0 mm | - | - | - |
| 1777553167 | 3.89° C | 1% | 1016 hPa | 0 mm | - | - | - |
| 1777552250 | 3.89° C | 1% | 1015.9 hPa | 0 mm | - | - | - |
| 1777551345 | 3.89° C | 1% | 1016 hPa | 0 mm | - | - | - |
| 1777550441 | 3.89° C | 1% | 1015.8 hPa | 0 mm | - | - | - |
| 1777549537 | 3.89° C | 1% | 1015.5 hPa | 0 mm | - | - | - |
| 1777548632 | 3.33° C | 1% | 1015.4 hPa | 0 mm | - | - | - |
| 1777547730 | 3.33° C | 1% | 1015.4 hPa | 0 mm | - | - | - |
| 1777546827 | 3.33° C | 1% | 1015.3 hPa | 0 mm | - | - | - |
| 1777545919 | 2.78° C | 1% | 1015.2 hPa | 0 mm | - | - | - |
| 1777545014 | 2.78° C | 1% | 1015 hPa | 0 mm | - | - | - |
| 1777544110 | 3.33° C | 1% | 1015 hPa | 0 mm | - | - | - |
* Rain latest hour (hover to see other rain measurements)
** Current wind speed in m/s (hover to see current wind gust speed)